Hourly Data Report for June 11, 2021

TOBERMORY RCS
ONTARIO
Current Station Operator: ECCC - MSC

45°14'00.000" N
81°38'00.000" W
213.50 m
6128330
71767
TTR

Download Data

Hourly Data (June 2021)
Hourly Data Report for June 11, 2021
TIME
LST
Temp Definition
°C
Dew Point Definition
°C
Rel Hum Definition
%
Precip. Amount Definition
mm

Wind Dir Definition
10's deg

Wind Spd Definition
km/h
Visibility Definition
km
Stn Press Definition
kPa
Hmdx Definition


Wind Chill Definition


Weather Definition


00:00 14.3 12.0 86 0.0 7 9   98.94     LegendNANA
01:00 15.0 12.7 86 0.0 10 8   98.87     LegendNANA
02:00 13.1 11.9 92 0.0 4 8   98.86     LegendNANA
03:00 12.7 11.8 94 0.0 6 12   98.84     LegendNANA
04:00 14.4 12.2 86 0.0 6 8   98.85     LegendNANA
05:00 14.1 11.2 83 0.0 6 5   98.83     LegendNANA
06:00 13.2 10.6 84 0.0 3 10   98.94     LegendNANA
07:00 12.8 11.3 91 0.4 9 9   98.92     LegendNANA
08:00 13.5 11.6 89 3.6 11 8   98.95     LegendNANA
09:00 13.9 11.8 87 4.9 13 22   98.77     LegendNANA
10:00 14.6 11.9 84 0.3 10 9   98.77     LegendNANA
11:00 14.5 11.9 85 0.0 11 9   98.78     LegendNANA
12:00 13.3 11.5 89 0.0 8 8   98.87     LegendNANA
13:00 12.7 11.9 95 0.0 8 7   98.94     LegendNANA
14:00 14.1 13.2 94 0.0 8 11   98.88     LegendNANA
15:00 14.9 12.5 86 0.0 7 13   98.81     LegendNANA
16:00 16.6 11.8 73 0.0 5 12   98.83     LegendNANA
17:00 16.9 13.1 78 0.0 7 12   98.75     LegendNANA
18:00 16.3 12.9 81 0.0 7 10   98.73     LegendNANA
19:00 16.4 12.8 79 0.0 5 6   98.74     LegendNANA
20:00 15.3 12.4 83 0.0 9 6   98.77     LegendNANA
21:00 12.6 11.5 93 0.0 3 5   98.86     LegendNANA
22:00 12.1 11.3 95 0.0 4 3   98.87     LegendNANA
23:00 11.8 11.0 95 0.0 8 4   98.77     LegendNANA

Notes on Data Quality.

Legend

  • E = Estimated
  • M = Missing
  • NA = Not Available*
  • [empty] = Indicates an unobserved value
Date modified: